Regional Weather Roundup
Issued by NWS

Home | Current Version | Previous Version | Text Only | Print | Product List | Glossary Off
Versions: 1 2 3 4 5 6 7 8 9 10 11 12 13 14 15 16 17 18 19 20 21 22 23 24 25 26 27 28 29 30 31 32 33 34 35 36 37 38 39 40 41 42 43 44 45 46 47 48 49 50

000
ASUS43 KLSX 280107
RWRMO

WEATHER SUMMARY FOR MISSOURI
NATIONAL WEATHER SERVICE SPRINGFIELD MO
700 PM CST FRI FEB 27 2015

NOTE: "FAIR" INDICATES FEW OR NO CLOUDS BELOW 12,000 FEET WITH NO
       SIGNIFICANT WEATHER AND/OR OBSTRUCTIONS TO VISIBILITY.
       CURRENT SKY AND/OR WEATHER CONDITIONS ARE NOT AVAILABLE FOR
       CHILLICOTHE AND FARMINGTON.

MOZ001>031-035>038-043-044-053-054-280200-
...NORTHERN AND WESTERN MISSOURI...

CITY           SKY/WX    TMP DP  RH WIND       PRES   REMARKS
KANSAS CTY INT CLOUDY    16   0  49 SE3       30.55R
KANSAS C DTWN  MOCLDY    19   2  47 NE8       30.57S WCI   9
LEE`S SUMMIT   CLOUDY    18   1  47 SE6       30.55S WCI  10
ST JOSEPH      CLOUDY    19   2  47 S6        30.57R WCI  11
CHILLICOTHE      N/A     16   4  59 CALM      30.61R
KIRKSVILLE     MOCLDY    12   3  67 E7        30.59R WCI   1

$$
MOZ066>068-077>081-088>096-101>105-280200-
...SOUTHWEST MISSOURI...

CITY           SKY/WX    TMP DP  RH WIND       PRES   REMARKS
SPRINGFIELD    CLOUDY    22   3  44 SE6       30.49R WCI  14
JOPLIN         FLURRIES  20   8  60 SE6       30.53R WCI  12

$$
MOZ032>034-039>042-045>050-055>058-069>072-280200-
...CENTRAL MISSOURI...

CITY           SKY/WX    TMP DP  RH WIND       PRES   REMARKS
COLUMBIA       CLOUDY    16   4  59 E10       30.58R WCI   4
JEFFERSON CITY CLOUDY    20   2  45 NE10      30.61R WCI   9
ROLLA          MOCLDY    20   2  45 E6        30.53R WCI  12
SEDALIA        CLOUDY    20   3  48 E6        30.58R WCI  12
WHITEMAN AFB   CLOUDY    19   4  52 NE8       30.55S WCI   8
WARRENSBURG    CLOUDY    19   5  53 NE5       30.57S WCI  13
OSAGE BEACH    CLOUDY    19   0  42 E3        30.56R

$$
MOZ051-052-059>065-280200-
...EAST CENTRAL MISSOURI...

CITY           SKY/WX    TMP DP  RH WIND       PRES   REMARKS
ST LOUIS INTL  MOCLDY    16  -2  45 NE7       30.64R WCI   6
SPIRIT OF STL  PTCLDY    16   0  49 NE8       30.64R WCI   5
ST CHARLES     PTCLDY    13  -2  51 NE5       30.66R WCI   5

$$
MOZ072>076-082>087-097>100-106>115-280200-
...SOUTH CENTRAL AND SOUTHEAST MISSOURI...

CITY           SKY/WX    TMP DP  RH WIND       PRES   REMARKS
CAPE GIRARDEAU CLOUDY    23  10  57 N8        30.63R WCI  14
FARMINGTON     CLOUDY    19   5  53 E7        30.61R WCI  10
POPLAR BLUFF   CLOUDY    22   8  55 NE8       30.62R WCI  12
WEST PLAINS    CLOUDY    21   2  43 E3        30.52S

$$



USA.gov is the U.S. government's official web portal to all federal, state and local government web resources and services.